Location: New Frontier Mobile Home Park
(32.8448°N, 116.9675°W)
Time: 23:14:13
(UTC+00:00)

OAO 1 - Pass Details

Date: 14 July 2020
Orbit: 774 x 783 km, 35.0° (Epoch: 05 August)

Event Time Altitude Azimuth Distance (km) Brightness Sun altitude
Exits shadow 10:43:30 45° 260° (W) 1,052 4.8 -22.2°
Maximum altitude 10:45:15 87° 347° (NNW) 785 4.5 -21.9°
Drops below altitude 10° 10:50:47 10° 77° (ENE) 2,331 7.8 -21.1°
Sets 10:53:16 0° 77° (ENE) 3,259 8.7 -20.8°
